Weather History for KVUJ - November, 2012

Change the Weather History Date:

Friday, November 9, 2012

  Actual Average (KHBI) Record (KHBI)
Temperature  
Mean Temperature 48 °F -  
Max Temperature 67 °F 65 °F 82 °F (1986)
Min Temperature 29 °F 42 °F 22 °F (1976)
Degree Days  
Heating Degree Days 17    
Moisture  
Dew Point 30 °F    
Average Humidity 62    
Maximum Humidity 90    
Minimum Humidity 23    
Precipitation  
Precipitation 0.00 in - - ()
Sea Level Pressure  
Sea Level Pressure 30.25 in    
Wind  
Wind Speed 1 mph (WNW)    
Max Wind Speed 7 mph    
Max Gust Speed -    
Visibility 10 miles    
Events      
Averages and records for this station are not official NWS values.
T = Trace of Precipitation, MM = Missing Value Source: NWS Daily Summary

Daily Weather History Graph

Daily Weather History Graph

Search for Another Location

Airport or City:

Trip Planner

Search our weather history database for the weather conditions in past years. The results will help you decide how hot, cold, wet, or windy it might be!

Date:

Astronomy

Nov. 09, 2012 Rise Set
Actual Time 6:50 AM EST 5:18 PM EST
Civil Twilight 6:23 AM EST 5:44 PM EST
Nautical Twilight 5:53 AM EST 6:15 PM EST
Astronomical Twilight 5:23 AM EST 6:45 PM EST
Moon 1:57 AM EST (11/9) 2:21 PM EST (11/9)
Length of Visible Light 11h 21m
Length of Day
10h 27m
Waning Crescent, 23% of the Moon is Illuminated
Nov 9
Waning Crescent
Nov 13
New
Nov 20
First Quarter
Nov 28
Full
Dec 6
Last Quarter

Hourly Weather History & Observations

Time (EST) Temp. Dew Point Humidity Pressure Visibility Wind Dir Wind Speed Gust Speed Precip Events Conditions
12:15 AM 33.4 °F 28.9 °F 84% 30.19 in 10.0 mi Calm Calm - N/A   Clear
12:35 AM 32.5 °F 28.4 °F 85% 30.19 in 10.0 mi Calm Calm - N/A   Clear
12:55 AM 30.9 °F 27.1 °F 86% 30.19 in 10.0 mi Calm Calm - N/A   Clear
1:15 AM 30.6 °F 26.8 °F 86% 30.19 in 10.0 mi Calm Calm - N/A   Clear
1:35 AM 31.1 °F 27.5 °F 87% 30.20 in 10.0 mi Calm Calm - N/A   Clear
1:55 AM 30.4 °F 27.9 °F 90% 30.20 in 10.0 mi Calm Calm - N/A   Clear
2:15 AM 30.0 °F 27.5 °F 90% 30.20 in 10.0 mi Calm Calm - N/A   Clear
2:35 AM 30.2 °F 27.3 °F 89% 30.20 in 10.0 mi Calm Calm - N/A   Clear
2:55 AM 30.7 °F 26.8 °F 85% 30.20 in 10.0 mi Calm Calm - N/A   Clear
3:15 AM 29.5 °F 26.4 °F 88% 30.20 in 10.0 mi Calm Calm - N/A   Clear
3:35 AM 29.1 °F 26.1 °F 88% 30.21 in 10.0 mi Calm Calm - N/A   Clear
3:55 AM 35.2 °F 27.1 °F 72% 30.21 in 10.0 mi Calm Calm - N/A   Clear
4:15 AM 33.3 °F 26.8 °F 77% 30.22 in 10.0 mi Calm Calm - N/A   Clear
4:35 AM 33.4 °F 27.9 °F 80% 30.23 in 10.0 mi Calm Calm - N/A   Clear
4:55 AM 30.4 °F 26.6 °F 86% 30.23 in 10.0 mi Calm Calm - N/A   Clear
5:15 AM 30.4 °F 26.8 °F 86% 30.23 in 10.0 mi Calm Calm - N/A   Clear
5:35 AM 30.0 °F 26.8 °F 88% 30.24 in 10.0 mi Calm Calm - N/A   Clear
5:55 AM 30.0 °F 26.8 °F 88% 30.24 in 10.0 mi Calm Calm - N/A   Clear
6:15 AM 30.2 °F 26.8 °F 87% 30.24 in 10.0 mi Calm Calm - N/A   Clear
6:35 AM 29.5 °F 26.4 °F 88% 30.25 in 10.0 mi Calm Calm - N/A   Clear
6:55 AM 31.6 °F 29.1 °F 90% 30.26 in 10.0 mi Calm Calm - N/A   Clear
7:15 AM 34.5 °F 29.5 °F 82% 30.27 in 10.0 mi Calm Calm - N/A   Clear
7:35 AM 34.0 °F 30.4 °F 87% 30.28 in 10.0 mi Calm Calm - N/A   Clear
7:55 AM 36.7 °F 33.8 °F 89% 30.28 in 10.0 mi Calm Calm - N/A   Clear
8:15 AM 41.0 °F 35.1 °F 79% 30.29 in 10.0 mi Calm Calm - N/A   Clear
8:35 AM 45.1 °F 35.6 °F 69% 30.29 in 10.0 mi Calm Calm - N/A   Clear
8:55 AM 49.8 °F 34.7 °F 56% 30.29 in 10.0 mi Calm Calm - N/A   Clear
9:15 AM 52.7 °F 30.4 °F 42% 30.29 in 10.0 mi Calm Calm - N/A   Clear
9:35 AM 54.1 °F 29.3 °F 39% 30.30 in 10.0 mi NNE 3.5 mph - N/A   Clear
9:55 AM 56.1 °F 28.9 °F 35% 30.30 in 10.0 mi North 4.6 mph - N/A   Clear
10:15 AM 57.4 °F 28.4 °F 33% 30.30 in 10.0 mi NNE 3.5 mph - N/A   Clear
10:35 AM 59.0 °F 28.6 °F 31% 30.30 in 10.0 mi Calm Calm - N/A   Clear
10:55 AM 59.5 °F 29.3 °F 32% 30.30 in 10.0 mi NNW 3.5 mph - N/A   Clear
11:15 AM 60.4 °F 28.6 °F 30% 30.30 in 10.0 mi Calm Calm - N/A   Clear
11:35 AM 60.8 °F 28.8 °F 30% 30.29 in 10.0 mi Calm Calm - N/A   Clear
11:55 AM 62.4 °F 27.9 °F 27% 30.28 in 10.0 mi WNW 4.6 mph - N/A   Clear
12:15 PM 63.3 °F 27.9 °F 26% 30.27 in 10.0 mi North 5.8 mph - N/A   Clear
12:35 PM 63.9 °F 27.5 °F 25% 30.26 in 10.0 mi NW 3.5 mph - N/A   Clear
12:55 PM 64.6 °F 28.2 °F 25% 30.25 in 10.0 mi SW 3.5 mph - N/A   Clear
1:15 PM 65.5 °F 27.9 °F 24% 30.25 in 10.0 mi Calm Calm - N/A   Clear
1:35 PM 66.0 °F 29.1 °F 25% 30.25 in 10.0 mi SW 5.8 mph - N/A   Clear
1:55 PM 66.2 °F 27.3 °F 23% 30.24 in 10.0 mi SW 3.5 mph - N/A   Clear
2:15 PM 66.4 °F 28.0 °F 24% 30.24 in 10.0 mi SW 4.6 mph - N/A   Clear
2:35 PM 67.1 °F 28.0 °F 23% 30.23 in 10.0 mi Calm Calm - N/A   Clear
2:55 PM 66.7 °F 28.8 °F 24% 30.23 in 10.0 mi West 5.8 mph - N/A   Clear
3:15 PM 66.9 °F 29.7 °F 25% 30.23 in 10.0 mi Calm Calm - N/A   Clear
3:35 PM 66.4 °F 29.1 °F 25% 30.23 in 10.0 mi WSW 6.9 mph - N/A   Clear
3:55 PM 66.2 °F 28.9 °F 25% 30.23 in 10.0 mi Calm Calm - N/A   Clear
4:15 PM 65.7 °F 28.9 °F 25% 30.23 in 10.0 mi West 3.5 mph - N/A   Clear
4:35 PM 65.1 °F 27.7 °F 24% 30.23 in 10.0 mi Calm Calm - N/A   Clear
4:55 PM 58.6 °F 31.8 °F 36% 30.23 in 10.0 mi Calm Calm - N/A   Clear
5:15 PM 56.3 °F 32.2 °F 40% 30.23 in 10.0 mi Calm Calm - N/A   Clear
5:35 PM 53.8 °F 32.4 °F 44% 30.24 in 10.0 mi Calm Calm - N/A   Clear
5:55 PM 49.1 °F 34.3 °F 57% 30.25 in 10.0 mi Calm Calm - N/A   Clear
6:15 PM 48.2 °F 33.8 °F 58% 30.25 in 10.0 mi Calm Calm - N/A   Clear
6:35 PM 46.8 °F 33.6 °F 60% 30.25 in 10.0 mi Calm Calm - N/A   Clear
6:55 PM 44.6 °F 32.9 °F 64% 30.26 in 10.0 mi Calm Calm - N/A   Clear
7:15 PM 43.0 °F 34.2 °F 71% 30.26 in 10.0 mi Calm Calm - N/A   Clear
7:35 PM 42.3 °F 34.0 °F 72% 30.27 in 10.0 mi Calm Calm - N/A   Clear
7:55 PM 41.0 °F 33.6 °F 75% 30.27 in 10.0 mi Calm Calm - N/A   Clear
8:15 PM 41.0 °F 33.3 °F 74% 30.27 in 10.0 mi Calm Calm - N/A   Clear
8:35 PM 41.0 °F 33.8 °F 76% 30.27 in 10.0 mi Calm Calm - N/A   Clear
8:55 PM 39.2 °F 33.3 °F 79% 30.28 in 10.0 mi Calm Calm - N/A   Clear
9:15 PM 38.8 °F 32.7 °F 79% 30.28 in 10.0 mi Calm Calm - N/A   Clear
9:35 PM 38.3 °F 32.7 °F 80% 30.29 in 10.0 mi Calm Calm - N/A   Clear
9:55 PM 38.3 °F 32.7 °F 80% 30.29 in 10.0 mi Calm Calm - N/A   Clear
10:15 PM 37.2 °F 32.7 °F 84% 30.29 in 10.0 mi Calm Calm - N/A   Clear
10:35 PM 36.1 °F 32.2 °F 86% 30.30 in 10.0 mi Calm Calm - N/A   Clear
10:55 PM 35.1 °F 32.0 °F 89% 30.30 in 10.0 mi Calm Calm - N/A   Clear
11:15 PM 36.0 °F 32.0 °F 86% 30.30 in 10.0 mi Calm Calm - N/A   Clear
11:35 PM 35.8 °F 32.0 °F 86% 30.30 in 10.0 mi Calm Calm - N/A   Clear
11:55 PM 35.2 °F 32.0 °F 88% 30.30 in 10.0 mi Calm Calm - N/A   Clear